This is the latest recevied weather packets stored in our database for station/object KD5UMO-1. If no packets are shown the sender has not sent any weather packets the latest 10 day(s).
| Time | Temp. | Humidity | Pressure | Rain* | Wind** | Luminosity | Snow |
|---|---|---|---|---|---|---|---|
| 1777752070 | 24.44° C | 35% | 1020.6 hPa | 0 mm | - | 799 W/m² | - |
| 1777751768 | 25° C | 33% | 1020.7 hPa | 0 mm | - | 800 W/m² | - |
| 1777751463 | 24.44° C | 33% | 1020.7 hPa | 0 mm | - | 810 W/m² | - |
| 1777751160 | 23.89° C | 34% | 1020.8 hPa | 0 mm | - | 815 W/m² | - |
| 1777750856 | 25° C | 33% | 1020.7 hPa | 0 mm | - | 826 W/m² | - |
| 1777750553 | 24.44° C | 33% | 1020.8 hPa | 0 mm | - | 836 W/m² | - |
| 1777750244 | 23.89° C | 37% | 1020.8 hPa | 0 mm | - | 844 W/m² | - |
| 1777749940 | 23.89° C | 35% | 1021 hPa | 0 mm | - | 851 W/m² | - |
| 1777749638 | 23.89° C | 34% | 1021.1 hPa | 0 mm | - | 855 W/m² | - |
| 1777749335 | 24.44° C | 36% | 1021 hPa | 0 mm | - | 858 W/m² | - |
| 1777749032 | 24.44° C | 33% | 1021.1 hPa | 0 mm | - | 865 W/m² | - |
| 1777748729 | 23.33° C | 35% | 1021.1 hPa | 0 mm | - | 867 W/m² | - |
| 1777748426 | 23.89° C | 32% | 1021.2 hPa | 0 mm | - | 869 W/m² | - |
| 1777748121 | 23.89° C | 35% | 1021.4 hPa | 0 mm | - | 875 W/m² | - |
| 1777747818 | 23.89° C | 35% | 1021.2 hPa | 0 mm | - | 878 W/m² | - |
| 1777747514 | 23.89° C | 35% | 1021.4 hPa | 0 mm | - | 879 W/m² | - |
| 1777747210 | 23.33° C | 34% | 1021.4 hPa | 0 mm | - | 882 W/m² | - |
| 1777746907 | 23.89° C | 35% | 1021.5 hPa | 0 mm | - | 885 W/m² | - |
| 1777746601 | 23.89° C | 34% | 1021.5 hPa | 0 mm | - | 885 W/m² | - |
| 1777746297 | 23.33° C | 34% | 1021.5 hPa | 0 mm | - | 891 W/m² | - |
| 1777745994 | 23.33° C | 33% | 1021.6 hPa | 0 mm | - | 894 W/m² | - |
| 1777745692 | 22.78° C | 35% | 1021.7 hPa | 0 mm | - | 896 W/m² | - |
| 1777745390 | 23.33° C | 34% | 1021.8 hPa | 0 mm | - | 897 W/m² | - |
| 1777745087 | 23.33° C | 31% | 1022 hPa | 0 mm | - | 899 W/m² | - |
| 1777744783 | 22.78° C | 32% | 1021.8 hPa | 0 mm | - | 898 W/m² | - |
* Rain latest hour (hover to see other rain measurements)
** Current wind speed in m/s (hover to see current wind gust speed)